When you browse on this site, cookies collect data to enhance your experience and personalize the content and advertising you see.
Visit our Privacy Policy to learn more. By continuing to use the site, you agree to this use of cookies and data.
  • In Latvia
  • List of Countries
  • For 7 days
  • Water Temperature
  • Weather Map
  • Weather Widgets
  • user-avatar
    Login

    Hourly Weather Aizkraukle

    Today, 3 June, Wednesday

    Time Temperature Precipitation Wind Pressure Humidity
    00:00 +9°C° 0 mm 2 mps 755 mmHg 75%
    01:00 +8°C° 0 mm 2 mps 755 mmHg 78%
    02:00 +8°C° 0 mm 2 mps 755 mmHg 80%
    03:00 +8°C° 0 mm 2 mps 755 mmHg 79%
    04:00 +8°C° 0 mm 3 mps 754 mmHg 78%
    05:00 +9°C° 0 mm 3 mps 754 mmHg 77%
    06:00 +10°C° 0 mm 3 mps 754 mmHg 75%
    07:00 +10°C° 0 mm 3 mps 754 mmHg 74%
    08:00 +11°C° 0 mm 4 mps 754 mmHg 72%
    09:00 +12°C° 0 mm 3 mps 754 mmHg 72%
    10:00 +12°C° 0 mm 3 mps 753 mmHg 73%
    11:00 +12°C° 0 mm 3 mps 753 mmHg 73%
    12:00 +14°C° 0.1 mm 3 mps 753 mmHg 70%
    13:00 +16°C° 0.1 mm 3 mps 753 mmHg 67%
    14:00 +17°C° 0.1 mm 3 mps 752 mmHg 63%
    15:00 +18°C° 0.2 mm 3 mps 752 mmHg 62%
    16:00 +18°C° 0.2 mm 3 mps 751 mmHg 61%
    17:00 +18°C° 0.2 mm 3 mps 751 mmHg 60%
    18:00 +17°C° 0.1 mm 3 mps 751 mmHg 68%
    19:00 +16°C° 0.1 mm 2 mps 751 mmHg 75%
    20:00 +15°C° 0.1 mm 2 mps 751 mmHg 83%
    21:00 +13°C° 0 mm 2 mps 751 mmHg 87%
    22:00 +11°C° 0 mm 3 mps 750 mmHg 92%
    23:00 +10°C° 0 mm 3 mps 750 mmHg 97%

    Tomorrow, 4 June, Thursday

    Time Temperature Precipitation Wind Pressure Humidity
    00:00 +10°C° 0 mm 2 mps 750 mmHg 98%
    01:00 +9°C° 0 mm 2 mps 750 mmHg 98%
    02:00 +9°C° 0 mm 2 mps 750 mmHg 98%
    03:00 +9°C° 0 mm 2 mps 749 mmHg 98%
    04:00 +9°C° 0 mm 2 mps 749 mmHg 97%
    05:00 +9°C° 0 mm 2 mps 749 mmHg 97%
    06:00 +12°C° 0 mm 2 mps 748 mmHg 90%
    07:00 +13°C° 0 mm 2 mps 748 mmHg 84%
    08:00 +14°C° 0 mm 1 mps 748 mmHg 78%
    09:00 +16°C° 0 mm 1 mps 748 mmHg 73%
    10:00 +18°C° 0 mm 1 mps 747 mmHg 69%
    11:00 +19°C° 0 mm 1 mps 747 mmHg 65%
    12:00 +20°C° 0.2 mm 1 mps 747 mmHg 62%
    13:00 +21°C° 0.2 mm 1 mps 746 mmHg 59%
    14:00 +22°C° 0.2 mm 1 mps 746 mmHg 56%
    15:00 +21°C° 0.5 mm 1 mps 746 mmHg 63%
    16:00 +20°C° 0.5 mm 1 mps 745 mmHg 70%
    17:00 +19°C° 0.5 mm 1 mps 745 mmHg 76%
    18:00 +18°C° 0.4 mm 1 mps 745 mmHg 81%
    19:00 +16°C° 0.4 mm 1 mps 745 mmHg 85%
    20:00 +15°C° 0.4 mm 1 mps 745 mmHg 89%
    21:00 +14°C° 0 mm 1 mps 745 mmHg 91%
    22:00 +13°C° 0 mm 1 mps 745 mmHg 93%
    23:00 +11°C° 0 mm 1 mps 745 mmHg 95%

    Day after tomorrow, 5 June, Friday

    Time Temperature Precipitation Wind Pressure Humidity
    00:00 +11°C° 0 mm 1 mps 745 mmHg 95%
    01:00 +10°C° 0 mm 1 mps 745 mmHg 96%
    02:00 +10°C° 0 mm 1 mps 745 mmHg 96%
    03:00 +10°C° 0 mm 1 mps 745 mmHg 96%
    04:00 +9°C° 0 mm 2 mps 745 mmHg 96%
    05:00 +9°C° 0 mm 2 mps 745 mmHg 97%
    06:00 +12°C° 0 mm 2 mps 745 mmHg 92%
    07:00 +13°C° 0 mm 2 mps 745 mmHg 87%
    08:00 +15°C° 0 mm 2 mps 746 mmHg 82%
    09:00 +17°C° 0 mm 2 mps 745 mmHg 71%
    10:00 +19°C° 0 mm 3 mps 745 mmHg 60%
    11:00 +21°C° 0 mm 3 mps 745 mmHg 48%
    12:00 +21°C° 0 mm 3 mps 745 mmHg 46%
    13:00 +22°C° 0 mm 3 mps 745 mmHg 45%
    14:00 +24°C° 0 mm 3 mps 745 mmHg 43%
    15:00 +24°C° 0 mm 3 mps 745 mmHg 44%
    16:00 +24°C° 0 mm 3 mps 745 mmHg 45%
    17:00 +24°C° 0 mm 3 mps 744 mmHg 46%
    18:00 +21°C° 0 mm 3 mps 744 mmHg 54%
    19:00 +20°C° 0 mm 3 mps 744 mmHg 61%
    20:00 +18°C° 0 mm 3 mps 744 mmHg 69%
    21:00 +18°C° 0 mm 3 mps 744 mmHg 70%
    22:00 +17°C° 0 mm 4 mps 744 mmHg 71%
    23:00 +17°C° 0 mm 4 mps 743 mmHg 72%

    6 June, Saturday

    Time Temperature Precipitation Wind Pressure Humidity
    00:00 +17°C° 0.5 mm 4 mps 743 mmHg 80%
    01:00 +15°C° 0.5 mm 4 mps 743 mmHg 88%
    02:00 +15°C° 0.5 mm 4 mps 743 mmHg 96%
    03:00 +15°C° 0.1 mm 4 mps 743 mmHg 96%
    04:00 +14°C° 0.1 mm 5 mps 743 mmHg 95%
    05:00 +13°C° 0.1 mm 5 mps 743 mmHg 95%
    06:00 +13°C° 0.8 mm 4 mps 744 mmHg 95%
    07:00 +12°C° 0.8 mm 4 mps 745 mmHg 94%
    08:00 +11°C° 0.8 mm 3 mps 745 mmHg 94%
    09:00 +14°C° 0 mm 4 mps 746 mmHg 81%
    10:00 +17°C° 0 mm 4 mps 746 mmHg 68%
    11:00 +19°C° 0 mm 5 mps 747 mmHg 56%
    12:00 +17°C° 0.4 mm 5 mps 747 mmHg 64%
    13:00 +16°C° 0.4 mm 5 mps 748 mmHg 73%
    14:00 +16°C° 0.4 mm 5 mps 748 mmHg 82%
    15:00 +16°C° 0.2 mm 5 mps 749 mmHg 76%
    16:00 +17°C° 0.2 mm 5 mps 749 mmHg 70%
    17:00 +17°C° 0.2 mm 5 mps 750 mmHg 65%
    18:00 +17°C° 0 mm 4 mps 750 mmHg 68%
    19:00 +16°C° 0 mm 3 mps 751 mmHg 72%
    20:00 +15°C° 0 mm 1 mps 751 mmHg 76%
    21:00 +15°C° 0 mm 2 mps 752 mmHg 77%
    22:00 +13°C° 0 mm 3 mps 752 mmHg 79%
    23:00 +13°C° 0 mm 3 mps 752 mmHg 80%

    7 June, Sunday

    Time Temperature Precipitation Wind Pressure Humidity
    00:00 +13°C° 0.1 mm 3 mps 753 mmHg 83%
    01:00 +13°C° 0.1 mm 3 mps 753 mmHg 85%
    02:00 +13°C° 0.1 mm 4 mps 753 mmHg 88%
    03:00 +13°C° 0 mm 3 mps 754 mmHg 89%
    04:00 +13°C° 0 mm 3 mps 754 mmHg 91%
    05:00 +13°C° 0 mm 3 mps 755 mmHg 93%
    06:00 +14°C° 0 mm 3 mps 755 mmHg 85%
    07:00 +17°C° 0 mm 3 mps 756 mmHg 77%
    08:00 +18°C° 0 mm 3 mps 756 mmHg 69%
    09:00 +19°C° 0 mm 3 mps 757 mmHg 66%
    10:00 +21°C° 0 mm 3 mps 757 mmHg 63%
    11:00 +22°C° 0 mm 3 mps 757 mmHg 60%
    12:00 +23°C° 0.8 mm 2 mps 757 mmHg 68%
    13:00 +23°C° 0.8 mm 2 mps 756 mmHg 76%
    14:00 +23°C° 0.8 mm 2 mps 756 mmHg 85%
    15:00 +21°C° 0.8 mm 3 mps 756 mmHg 85%
    16:00 +21°C° 0.8 mm 3 mps 756 mmHg 85%
    17:00 +20°C° 0.8 mm 4 mps 756 mmHg 86%
    18:00 +20°C° 0.1 mm 3 mps 755 mmHg 87%
    19:00 +19°C° 0.1 mm 2 mps 755 mmHg 88%
    20:00 +19°C° 0.1 mm 2 mps 755 mmHg 89%
    21:00 +18°C° 0.4 mm 2 mps 755 mmHg 92%
    22:00 +18°C° 0.4 mm 2 mps 755 mmHg 94%
    23:00 +18°C° 0.4 mm 1 mps 755 mmHg 97%

    8 June, Monday

    Time Temperature Precipitation Wind Pressure Humidity
    00:00 +17°C° 0 mm 2 mps 755 mmHg 98%
    01:00 +17°C° 0 mm 2 mps 755 mmHg 98%
    02:00 +17°C° 0 mm 2 mps 754 mmHg 98%
    03:00 +17°C° 0.4 mm 2 mps 754 mmHg 98%
    04:00 +17°C° 0.4 mm 2 mps 754 mmHg 98%
    05:00 +17°C° 0.4 mm 2 mps 754 mmHg 99%
    06:00 +18°C° 0.4 mm 2 mps 755 mmHg 97%
    07:00 +19°C° 0.4 mm 3 mps 755 mmHg 95%
    08:00 +20°C° 0.4 mm 3 mps 755 mmHg 93%
    09:00 +22°C° 0 mm 3 mps 756 mmHg 82%
    10:00 +25°C° 0 mm 3 mps 756 mmHg 71%
    11:00 +27°C° 0 mm 3 mps 756 mmHg 60%
    12:00 +28°C° 0.2 mm 3 mps 756 mmHg 56%
    13:00 +29°C° 0.2 mm 4 mps 756 mmHg 53%
    14:00 +30°C° 0.2 mm 4 mps 756 mmHg 49%
    15:00 +29°C° 0 mm 4 mps 756 mmHg 50%
    16:00 +29°C° 0 mm 4 mps 756 mmHg 50%
    17:00 +29°C° 0 mm 4 mps 756 mmHg 51%
    18:00 +27°C° 0.2 mm 3 mps 756 mmHg 63%
    19:00 +25°C° 0.2 mm 3 mps 756 mmHg 74%
    20:00 +23°C° 0.2 mm 2 mps 756 mmHg 86%
    21:00 +21°C° 0.1 mm 2 mps 756 mmHg 88%
    22:00 +20°C° 0.1 mm 2 mps 756 mmHg 91%
    23:00 +20°C° 0.1 mm 3 mps 756 mmHg 93%
    Show more